Precipitable_Water
0.48 0.46 0.42 0.38 0.35 0.33 0.30 0.29 0.26 0.21 0.21 0.23 0.21 0.23 0.23 0.23 0.24 0.25 0.24 0.23 0.24 0.26 0.28 0.28 0.29 0.29 0.29 0.30 0.32 0.34 0.36 0.36 0.37 0.37 0.38 0.39 0.39 0.42
0.47 0.43 0.40 0.36 0.33 0.31 0.30 0.28 0.26 0.24 0.20 0.22 0.21 0.22 0.24 0.25 0.24 0.25 0.24 0.24 0.25 0.25 0.26 0.27 0.27 0.29 0.31 0.34 0.35 0.36 0.37 0.38 0.40 0.41 0.42 0.43 0.44 0.44
0.45 0.42 0.37 0.34 0.30 0.29 0.27 0.26 0.25 0.24 0.20 0.21 0.23 0.25 0.23 0.23 0.24 0.24 0.26 0.25 0.23 0.24 0.24 0.27 0.30 0.32 0.35 0.36 0.37 0.37 0.38 0.38 0.40 0.41 0.43 0.44 0.44 0.45
0.42 0.38 0.33 0.30 0.28 0.27 0.26 0.25 0.24 0.23 0.23 0.20 0.22 0.22 0.23 0.24 0.24 0.25 0.26 0.26 0.22 0.24 0.27 0.30 0.33 0.34 0.35 0.36 0.36 0.36 0.37 0.38 0.39 0.40 0.41 0.41 0.42 0.42
0.38 0.33 0.30 0.28 0.27 0.26 0.25 0.24 0.24 0.25 0.23 0.21 0.19 0.22 0.22 0.25 0.26 0.28 0.22 0.22 0.25 0.27 0.29 0.31 0.32 0.33 0.34 0.35 0.35 0.35 0.35 0.36 0.38 0.39 0.39 0.40 0.39 0.40
0.33 0.30 0.29 0.29 0.27 0.25 0.24 0.24 0.24 0.22 0.22 0.20 0.19 0.20 0.23 0.27 0.24 0.20 0.20 0.24 0.27 0.30 0.32 0.32 0.32 0.32 0.32 0.31 0.31 0.33 0.35 0.37 0.37 0.38 0.38 0.38 0.38 0.39
0.29 0.30 0.29 0.28 0.27 0.27 0.26 0.24 0.24 0.22 0.21 0.21 0.21 0.23 0.22 0.20 0.19 0.21 0.23 0.27 0.29 0.33 0.30 0.28 0.30 0.28 0.29 0.29 0.31 0.32 0.35 0.37 0.38 0.37 0.38 0.38 0.39 0.39
0.29 0.27 0.27 0.25 0.25 0.24 0.25 0.25 0.24 0.22 0.23 0.23 0.22 0.21 0.20 0.19 0.23 0.25 0.27 0.27 0.26 0.31 0.29 0.27 0.28 0.26 0.28 0.29 0.31 0.34 0.37 0.38 0.37 0.38 0.40 0.41 0.41 0.42
0.27 0.26 0.25 0.24 0.24 0.23 0.23 0.23 0.24 0.24 0.26 0.24 0.22 0.20 0.20 0.25 0.27 0.28 0.30 0.29 0.27 0.28 0.28 0.24 0.27 0.24 0.27 0.29 0.32 0.35 0.38 0.38 0.40 0.41 0.42 0.42 0.42 0.42
0.26 0.25 0.23 0.22 0.22 0.22 0.22 0.23 0.24 0.25 0.24 0.22 0.22 0.24 0.28 0.31 0.34 0.34 0.31 0.28 0.27 0.28 0.29 0.22 0.26 0.24 0.27 0.31 0.33 0.35 0.38 0.39 0.41 0.41 0.42 0.43 0.43 0.44
0.24 0.23 0.22 0.22 0.21 0.24 0.23 0.23 0.23 0.20 0.21 0.23 0.28 0.31 0.33 0.33 0.32 0.30 0.27 0.25 0.22 0.24 0.27 0.26 0.26 0.25 0.25 0.28 0.32 0.35 0.37 0.39 0.41 0.42 0.43 0.44 0.44 0.45
0.21 0.21 0.21 0.21 0.23 0.24 0.23 0.22 0.18 0.18 0.22 0.28 0.30 0.29 0.29 0.29 0.30 0.30 0.28 0.25 0.24 0.22 0.26 0.25 0.25 0.26 0.20 0.28 0.31 0.34 0.35 0.38 0.41 0.43 0.44 0.46 0.44 0.42
0.20 0.19 0.20 0.21 0.23 0.24 0.23 0.20 0.20 0.26 0.29 0.28 0.27 0.27 0.28 0.29 0.30 0.31 0.32 0.30 0.26 0.24 0.28 0.28 0.25 0.25 0.25 0.26 0.30 0.33 0.35 0.37 0.40 0.43 0.46 0.45 0.45 0.44
0.19 0.19 0.21 0.22 0.23 0.21 0.20 0.23 0.28 0.28 0.26 0.26 0.25 0.26 0.26 0.28 0.30 0.31 0.32 0.32 0.32 0.29 0.30 0.31 0.26 0.26 0.25 0.26 0.27 0.32 0.35 0.38 0.42 0.43 0.43 0.44 0.46 0.47
0.20 0.21 0.21 0.21 0.19 0.19 0.22 0.26 0.26 0.25 0.25 0.24 0.25 0.26 0.28 0.29 0.30 0.30 0.31 0.32 0.31 0.31 0.31 0.32 0.31 0.30 0.29 0.30 0.29 0.31 0.33 0.38 0.42 0.43 0.44 0.44 0.43 0.43
0.21 0.20 0.19 0.17 0.18 0.22 0.24 0.25 0.25 0.26 0.27 0.27 0.27 0.28 0.29 0.29 0.29 0.30 0.29 0.29 0.28 0.28 0.32 0.33 0.33 0.32 0.30 0.34 0.34 0.33 0.36 0.35 0.41 0.44 0.43 0.41 0.42 0.44
0.20 0.18 0.15 0.17 0.20 0.22 0.23 0.25 0.26 0.27 0.27 0.29 0.29 0.28 0.28 0.29 0.28 0.30 0.30 0.29 0.27 0.26 0.26 0.29 0.33 0.34 0.37 0.36 0.33 0.34 0.35 0.38 0.41 0.42 0.42 0.37 0.41 0.42
0.17 0.14 0.16 0.19 0.20 0.22 0.23 0.24 0.26 0.27 0.29 0.29 0.29 0.28 0.28 0.28 0.28 0.30 0.30 0.28 0.27 0.26 0.26 0.28 0.29 0.30 0.33 0.35 0.37 0.35 0.36 0.38 0.40 0.41 0.41 0.36 0.36 0.42
0.14 0.16 0.19 0.20 0.22 0.23 0.24 0.25 0.26 0.28 0.30 0.30 0.29 0.29 0.29 0.29 0.29 0.28 0.29 0.28 0.27 0.27 0.27 0.29 0.30 0.32 0.28 0.25 0.32 0.38 0.35 0.38 0.38 0.38 0.39 0.38 0.37 0.42
0.16 0.19 0.20 0.22 0.24 0.25 0.26 0.27 0.28 0.29 0.30 0.30 0.30 0.30 0.30 0.30 0.29 0.29 0.29 0.28 0.27 0.27 0.27 0.29 0.32 0.33 0.30 0.30 0.31 0.34 0.41 0.39 0.38 0.37 0.38 0.41 0.44 0.48
0.19 0.20 0.23 0.24 0.26 0.27 0.28 0.29 0.30 0.30 0.31 0.31 0.31 0.31 0.31 0.30 0.29 0.30 0.29 0.29 0.28 0.27 0.25 0.29 0.34 0.37 0.38 0.39 0.33 0.33 0.38 0.43 0.43 0.40 0.40 0.39 0.37 0.41
0.21 0.23 0.25 0.26 0.27 0.28 0.29 0.30 0.31 0.31 0.31 0.32 0.31 0.31 0.31 0.31 0.30 0.30 0.30 0.28 0.28 0.27 0.28 0.33 0.35 0.36 0.36 0.34 0.33 0.35 0.36 0.41 0.43 0.45 0.47 0.45 0.38 0.34
0.23 0.26 0.26 0.27 0.29 0.30 0.30 0.31 0.32 0.32 0.33 0.32 0.32 0.31 0.31 0.30 0.31 0.31 0.31 0.30 0.29 0.29 0.29 0.31 0.33 0.35 0.34 0.36 0.36 0.36 0.37 0.37 0.39 0.40 0.43 0.47 0.49 0.52
Wind_Speed
33 35 36 37 39 40 41 43 44 46 47 47 48 49 54 56 57 59 62 63 63 64 66 66 65 65 62 60 57 55 54 53 53 53 54 56 58 61
35 36 38 39 40 42 43 44 45 48 51 51 53 55 56 58 61 61 63 64 64 65 65 62 61 57 54 50 48 46 45 45 44 44 45 46 48 50
37 38 40 41 42 43 44 46 47 49 52 54 55 56 59 61 61 63 62 64 63 60 60 55 50 47 45 43 41 39 39 39 40 40 41 42 43 44
38 40 41 42 43 45 46 47 49 51 54 57 57 59 60 60 62 62 61 60 60 53 48 45 42 41 39 38 39 39 38 39 39 40 41 42 43 44
39 41 42 43 45 46 48 50 51 53 55 57 60 60 61 61 61 59 60 53 48 45 42 39 39 38 37 38 38 38 38 38 39 40 41 42 43 44
40 41 43 44 46 48 50 51 53 55 56 58 60 61 61 59 59 57 49 45 40 38 38 38 37 36 36 37 37 36 36 37 38 38 38 39 40 42
41 42 44 46 48 50 50 52 54 56 57 58 59 60 59 57 51 47 42 38 37 36 36 33 33 34 34 34 34 34 34 35 35 35 36 37 38 38
42 44 46 48 48 50 52 54 55 57 58 58 59 58 54 48 44 38 37 35 33 34 32 34 33 34 33 33 34 34 33 33 32 33 35 36 38 38
43 45 47 48 50 51 53 56 56 58 58 59 55 51 47 41 38 36 35 34 35 36 36 34 33 34 34 34 34 32 32 31 31 33 35 36 37 37
44 46 47 49 50 53 55 57 58 57 55 52 48 43 39 37 36 35 36 36 35 34 34 34 35 35 33 34 33 30 29 29 30 33 35 36 37 37
45 46 49 50 52 54 57 58 57 53 49 44 40 38 36 36 35 35 34 34 33 33 34 36 34 36 35 33 28 27 27 29 32 34 34 35 35 35
46 48 50 51 53 56 56 55 52 47 41 37 34 34 33 34 34 34 35 34 34 34 33 33 34 34 28 27 26 27 26 30 32 34 33 33 32 32
48 49 50 52 55 55 53 49 44 38 35 33 33 33 34 34 34 34 35 35 35 35 35 34 32 32 29 28 26 27 27 29 31 31 30 30 31 33
49 50 52 53 54 51 45 39 35 33 32 32 33 34 35 35 35 35 35 35 34 35 33 32 30 30 28 27 26 25 27 30 29 29 29 30 32 33
49 51 53 51 48 40 35 32 30 30 31 32 33 33 34 35 35 33 31 31 30 30 30 29 28 28 26 25 24 25 27 28 27 27 29 29 33 33
51 51 49 44 36 31 29 29 29 30 31 31 31 32 32 30 29 27 27 27 27 27 28 27 26 26 24 23 22 25 26 25 28 27 28 31 31 32
51 47 40 32 28 26 27 28 29 30 30 31 31 31 29 28 27 26 26 27 27 27 27 26 25 24 22 21 21 22 24 25 27 27 28 29 30 32
44 37 29 25 24 25 26 27 28 29 30 30 30 29 28 27 27 27 28 27 27 27 26 25 23 21 19 17 19 21 23 24 26 26 27 27 28 31
35 26 22 22 23 24 25 27 28 28 30 30 30 29 28 27 28 28 28 27 26 26 25 23 20 19 18 17 19 19 22 24 24 24 24 26 26 29
23 19 20 21 22 23 26 28 29 29 31 31 31 29 28 27 27 27 27 26 25 24 23 20 18 17 17 18 20 21 22 22 22 23 23 24 24 26
18 18 19 20 22 24 27 29 30 31 32 33 32 30 29 28 27 26 25 25 23 22 20 18 18 18 17 18 17 19 20 21 21 22 22 22 20 21
16 17 18 20 23 26 28 29 31 31 32 33 32 30 29 28 26 24 23 21 20 19 18 18 17 16 16 16 16 18 19 20 20 20 19 19 18 18
15 16 18 21 24 26 28 29 31 31 33 33 32 31 30 27 24 22 20 19 18 17 17 16 16 15 15 16 18 17 18 19 18 18 18 19 19 20
Wind_Direction
299 300 301 302 302 302 302 302 302 303 303 304 303 302 302 301 301 301 300 300 299 298 298 296 295 294 292 290 288 286 283 281 278 276 273 271 268 265
300 301 302 303 303 303 302 302 302 302 302 304 304 304 303 303 303 302 301 301 301 300 299 297 296 294 293 291 288 286 284 282 281 279 276 274 271 268
301 302 303 303 303 303 303 303 303 303 302 304 304 304 304 304 304 303 302 303 302 300 300 297 296 295 293 291 289 287 286 284 282 281 279 277 274 271
302 303 303 304 304 304 304 304 304 304 303 304 305 305 305 305 305 304 304 304 302 301 299 298 296 295 293 291 290 288 287 285 283 282 281 279 276 273
302 303 304 305 305 305 305 305 305 305 305 305 306 306 306 306 306 305 305 304 302 301 299 298 298 296 294 293 291 290 288 287 286 284 283 281 278 275
303 304 305 305 305 306 306 306 306 306 306 306 306 307 307 307 307 306 305 304 302 301 299 300 298 297 297 296 294 292 290 289 288 287 286 284 282 279
305 305 305 306 306 306 306 307 307 307 307 307 307 308 308 308 307 307 304 304 303 303 302 301 300 300 299 298 296 295 293 292 291 290 289 288 286 283
306 306 307 307 307 307 307 308 308 308 308 307 308 307 307 307 307 305 305 305 304 306 304 303 302 301 301 300 298 297 295 294 293 292 292 291 289 285
307 308 308 309 309 309 309 309 309 309 308 307 307 307 307 306 305 304 304 303 304 304 303 301 303 302 301 300 299 297 295 295 294 295 296 294 291 288
309 309 309 310 310 310 310 310 310 309 309 308 306 306 305 304 304 303 303 303 303 303 302 301 304 302 302 300 298 295 296 296 298 300 299 297 293 290
310 311 311 311 311 311 312 312 311 311 310 308 306 305 304 304 304 304 304 304 304 305 303 302 303 303 303 299 297 295 297 299 303 304 302 300 298 295
312 312 312 312 313 313 313 313 313 312 311 310 309 308 307 306 306 305 305 303 304 305 306 305 305 307 305 299 297 298 299 302 307 307 306 303 301 299
314 314 314 314 314 314 314 314 313 312 312 311 310 309 309 307 306 305 304 303 303 302 304 304 305 304 300 300 296 300 302 306 309 309 308 307 305 303
315 315 316 315 315 315 315 315 314 314 314 313 312 311 310 309 308 306 305 303 303 301 304 303 302 302 300 299 295 301 305 308 311 310 310 310 310 308
317 316 316 316 316 317 317 317 317 317 316 316 315 315 314 312 311 309 308 307 307 306 306 304 303 302 298 296 295 302 307 310 312 312 314 315 316 313
318 318 317 317 318 319 320 321 321 320 319 319 319 319 320 320 318 317 316 315 313 313 312 309 307 304 300 296 296 303 309 310 314 315 316 318 319 318
319 319 319 319 321 323 324 324 325 324 322 321 321 321 322 323 322 322 320 319 317 317 316 314 311 307 300 296 300 307 311 315 318 318 319 321 323 326
320 320 320 322 325 327 329 330 331 330 329 326 324 322 322 322 322 323 323 321 320 320 319 318 315 312 308 301 302 311 315 318 321 321 322 326 328 334
320 320 322 326 328 331 332 333 333 334 334 332 329 325 321 319 320 321 322 322 321 322 322 321 319 317 313 310 314 318 320 322 322 324 326 330 332 338
321 322 326 329 331 333 333 333 333 333 333 332 331 327 324 321 320 321 323 323 322 324 324 324 322 321 317 315 316 318 325 325 327 328 330 332 334 339
323 326 329 331 333 334 334 334 333 332 332 331 330 327 324 322 320 320 322 323 323 326 327 327 327 323 320 320 320 323 329 331 330 331 334 336 339 346
326 328 331 333 334 335 336 336 335 334 334 333 331 329 326 323 320 319 322 324 326 328 329 330 332 332 332 332 329 329 332 335 338 339 342 342 344 346
328 331 333 335 336 337 337 337 337 337 337 336 333 331 329 325 322 319 321 324 327 331 335 336 338 340 340 339 337 335 337 341 344 348 351 352 349 349